N94PX KOGD-KRKS

Flight info

Callsign N94PX
Flight time 0h 50m
Altitude 17000
Route EMONT3 EMONT V236 OGD V6 FBR V142 PUDVY
Aircraft TBM8/L-SDFGRWY/S

Departure

Time 2026-05-08 03:01
Airport Ogden Hinckley Airport (KOGD)

Arrival

Time 2026-05-08 03:51
Airport Southwest Wyoming Regional Airport (KRKS)
Time Latitude Longitude Altitude Speed Heading
2026-05-08 02:44 41.18655 -112.01758 4455 ft 0 kts 91°
2026-05-08 02:57 41.18656 -112.01750 4455 ft 5 kts 58°
2026-05-08 02:57 41.18671 -112.01793 4455 ft 8 kts 269°
2026-05-08 02:57 41.18677 -112.01893 4455 ft 12 kts 293°
2026-05-08 02:57 41.18733 -112.01980 4455 ft 7 kts 315°
2026-05-08 02:58 41.18736 -112.01984 4455 ft 0 kts 315°
2026-05-08 02:59 41.18785 -112.02045 4455 ft 20 kts 338°
2026-05-08 02:59 41.18851 -112.02022 4455 ft 3 kts 44°
2026-05-08 03:00 41.18885 -112.01978 4455 ft 23 kts 45°
2026-05-08 03:00 41.19112 -112.01679 4450 ft 68 kts 45°
2026-05-08 03:00 41.19554 -112.01100 4446 ft 109 kts 45°
2026-05-08 03:00 41.20173 -112.00329 4529 ft 131 kts 40°
2026-05-08 03:01 41.20832 -111.99467 4877 ft 135 kts 45°
2026-05-08 03:01 41.21505 -111.98640 5381 ft 128 kts 24°
2026-05-08 03:01 41.22378 -111.98632 5720 ft 132 kts 332°
2026-05-08 03:01 41.23021 -111.99443 6130 ft 127 kts 294°
2026-05-08 03:02 41.23234 -112.00569 6475 ft 128 kts 265°
2026-05-08 03:02 41.23114 -112.01772 6754 ft 132 kts 259°
2026-05-08 03:02 41.22958 -112.02962 7128 ft 131 kts 261°
2026-05-08 03:02 41.22821 -112.04187 7414 ft 138 kts 263°
2026-05-08 03:03 41.22694 -112.05473 7688 ft 146 kts 264°
2026-05-08 03:03 41.22589 -112.06853 7986 ft 154 kts 265°
2026-05-08 03:03 41.22489 -112.08304 8286 ft 161 kts 266°
2026-05-08 03:03 41.22310 -112.09802 8607 ft 169 kts 252°
2026-05-08 03:04 41.21691 -112.11156 8998 ft 175 kts 237°
2026-05-08 03:04 41.20970 -112.12474 9384 ft 178 kts 239°
2026-05-08 03:04 41.20248 -112.13837 9758 ft 182 kts 239°
2026-05-08 03:04 41.19515 -112.15224 10117 ft 185 kts 239°
2026-05-08 03:05 41.18774 -112.16627 10468 ft 187 kts 239°
2026-05-08 03:05 41.18024 -112.18042 10820 ft 188 kts 239°
2026-05-08 03:05 41.17455 -112.19558 11162 ft 181 kts 269°
2026-05-08 03:05 41.17863 -112.21074 11537 ft 178 kts 309°
2026-05-08 03:06 41.18949 -112.21779 12015 ft 181 kts 351°
2026-05-08 03:06 41.20140 -112.21215 12501 ft 192 kts 35°
2026-05-08 03:06 41.20756 -112.19628 12998 ft 199 kts 73°
2026-05-08 03:06 41.20964 -112.17834 13519 ft 192 kts 76°
2026-05-08 03:07 41.21191 -112.16131 14010 ft 183 kts 72°
2026-05-08 03:07 41.21466 -112.14542 14427 ft 175 kts 68°
2026-05-08 03:07 41.21781 -112.12969 14719 ft 179 kts 67°
2026-05-08 03:07 41.22125 -112.11358 14980 ft 183 kts 65°
2026-05-08 03:08 41.22460 -112.09686 15224 ft 192 kts 71°
2026-05-08 03:08 41.22647 -112.07881 15473 ft 201 kts 77°
2026-05-08 03:08 41.22819 -112.06011 15726 ft 207 kts 76°
2026-05-08 03:08 41.23005 -112.04094 15975 ft 212 kts 75°
2026-05-08 03:09 41.23201 -112.02121 16230 ft 218 kts 75°
2026-05-08 03:09 41.23401 -112.00104 16489 ft 223 kts 75°
2026-05-08 03:09 41.23606 -111.98043 16750 ft 227 kts 75°
2026-05-08 03:09 41.23815 -111.95937 16955 ft 235 kts 75°
2026-05-08 03:10 41.24039 -111.93720 16985 ft 249 kts 76°
2026-05-08 03:10 41.24272 -111.91382 16996 ft 261 kts 75°
2026-05-08 03:10 41.24507 -111.88943 16957 ft 270 kts 76°
2026-05-08 03:10 41.24753 -111.86432 17013 ft 278 kts 77°
2026-05-08 03:11 41.25005 -111.83852 17027 ft 285 kts 77°
2026-05-08 03:11 41.25175 -111.82103 17022 ft 290 kts 77°
2026-05-08 03:11 41.25432 -111.79424 17018 ft 294 kts 77°
2026-05-08 03:11 41.25693 -111.76712 16996 ft 297 kts 77°
2026-05-08 03:12 41.25954 -111.73973 16987 ft 299 kts 77°
2026-05-08 03:12 41.26216 -111.71227 16981 ft 300 kts 77°
2026-05-08 03:12 41.26480 -111.68463 16977 ft 301 kts 77°
2026-05-08 03:12 41.26744 -111.65696 16994 ft 302 kts 77°
2026-05-08 03:13 41.27009 -111.62922 16987 ft 303 kts 77°
2026-05-08 03:13 41.27274 -111.60140 16985 ft 304 kts 77°
2026-05-08 03:13 41.27538 -111.57347 16974 ft 305 kts 77°
2026-05-08 03:13 41.27803 -111.54555 16966 ft 305 kts 77°
2026-05-08 03:14 41.28065 -111.51792 16976 ft 305 kts 77°
2026-05-08 03:14 41.28327 -111.48999 16961 ft 304 kts 77°
2026-05-08 03:14 41.28593 -111.46212 17000 ft 304 kts 78°
2026-05-08 03:14 41.28853 -111.43419 17010 ft 304 kts 78°
2026-05-08 03:15 41.29111 -111.40627 17006 ft 304 kts 78°
2026-05-08 03:15 41.29372 -111.37841 17027 ft 303 kts 78°
2026-05-08 03:15 41.29631 -111.35051 17043 ft 303 kts 77°
2026-05-08 03:15 41.29894 -111.32268 17059 ft 303 kts 77°
2026-05-08 03:16 41.30157 -111.29488 17068 ft 303 kts 77°
2026-05-08 03:16 41.30417 -111.26703 17079 ft 303 kts 77°
2026-05-08 03:16 41.30670 -111.23968 17089 ft 303 kts 78°
2026-05-08 03:16 41.30932 -111.21144 17104 ft 303 kts 78°
2026-05-08 03:17 41.31187 -111.18362 17124 ft 303 kts 77°
2026-05-08 03:17 41.31442 -111.15579 17133 ft 303 kts 78°
2026-05-08 03:17 41.31697 -111.12789 17141 ft 303 kts 78°
2026-05-08 03:17 41.31947 -111.10045 17144 ft 303 kts 78°
2026-05-08 03:18 41.32199 -111.07259 17141 ft 303 kts 78°
2026-05-08 03:18 41.32451 -111.04476 17138 ft 303 kts 78°
2026-05-08 03:18 41.32701 -111.01693 17129 ft 302 kts 78°
2026-05-08 03:18 41.32949 -110.98917 17135 ft 302 kts 78°
2026-05-08 03:19 41.33198 -110.96141 17142 ft 302 kts 78°
2026-05-08 03:19 41.33447 -110.93363 17140 ft 302 kts 78°
2026-05-08 03:19 41.33697 -110.90582 17128 ft 303 kts 78°
2026-05-08 03:19 41.33950 -110.87799 17116 ft 303 kts 78°
2026-05-08 03:20 41.34198 -110.85019 17096 ft 303 kts 78°
2026-05-08 03:20 41.34442 -110.82235 17087 ft 303 kts 78°
2026-05-08 03:20 41.34685 -110.79447 17091 ft 303 kts 78°
2026-05-08 03:20 41.34928 -110.76661 17061 ft 304 kts 78°
2026-05-08 03:21 41.35172 -110.73862 17046 ft 304 kts 78°
2026-05-08 03:21 41.35416 -110.71072 17027 ft 304 kts 78°
2026-05-08 03:21 41.35659 -110.68283 17011 ft 303 kts 78°
2026-05-08 03:21 41.35902 -110.65494 17014 ft 303 kts 78°
2026-05-08 03:22 41.36143 -110.62706 17000 ft 303 kts 78°
2026-05-08 03:22 41.36379 -110.59948 17114 ft 303 kts 78°
2026-05-08 03:22 41.36620 -110.57156 17131 ft 303 kts 78°
2026-05-08 03:22 41.36858 -110.54370 17149 ft 303 kts 78°
2026-05-08 03:23 41.37098 -110.51574 17155 ft 303 kts 78°
2026-05-08 03:23 41.37337 -110.48785 17158 ft 303 kts 78°
2026-05-08 03:23 41.37575 -110.45992 17176 ft 304 kts 78°
2026-05-08 03:23 41.37835 -110.43202 17168 ft 303 kts 76°
2026-05-08 03:24 41.38189 -110.40437 17160 ft 301 kts 73°
2026-05-08 03:24 41.38614 -110.37718 17148 ft 300 kts 72°
2026-05-08 03:24 41.39041 -110.34997 17135 ft 300 kts 72°
2026-05-08 03:24 41.39465 -110.32276 17134 ft 299 kts 72°
2026-05-08 03:25 41.39883 -110.29588 17095 ft 301 kts 72°
2026-05-08 03:25 41.40307 -110.26863 17067 ft 301 kts 72°
2026-05-08 03:25 41.40730 -110.24136 17046 ft 301 kts 72°
2026-05-08 03:25 41.41153 -110.21405 17028 ft 300 kts 72°
2026-05-08 03:26 41.41575 -110.18675 17007 ft 300 kts 72°
2026-05-08 03:26 41.41996 -110.15953 16987 ft 300 kts 72°
2026-05-08 03:26 41.42415 -110.13233 16989 ft 300 kts 73°
2026-05-08 03:26 41.42834 -110.10513 16971 ft 300 kts 73°
2026-05-08 03:27 41.43252 -110.07796 16959 ft 299 kts 73°
2026-05-08 03:27 41.43671 -110.05072 16938 ft 299 kts 73°
2026-05-08 03:27 41.44086 -110.02359 16915 ft 299 kts 73°
2026-05-08 03:27 41.44501 -109.99642 16893 ft 299 kts 73°
2026-05-08 03:28 41.44911 -109.96937 16878 ft 295 kts 73°
2026-05-08 03:28 41.45300 -109.94281 16860 ft 289 kts 73°
2026-05-08 03:28 41.45688 -109.91675 16846 ft 285 kts 73°
2026-05-08 03:28 41.46080 -109.89094 16847 ft 282 kts 72°
2026-05-08 03:29 41.46434 -109.86526 16828 ft 282 kts 77°
2026-05-08 03:29 41.46516 -109.83946 16696 ft 282 kts 88°
2026-05-08 03:29 41.46415 -109.81383 16565 ft 271 kts 88°
2026-05-08 03:29 41.46334 -109.78915 16381 ft 264 kts 88°
2026-05-08 03:30 41.46213 -109.74096 15874 ft 257 kts 87°
2026-05-08 03:30 41.46105 -109.69378 15387 ft 253 kts 88°
2026-05-08 03:31 41.45983 -109.64747 14920 ft 246 kts 88°
2026-05-08 03:31 41.45863 -109.60247 14446 ft 241 kts 88°
2026-05-08 03:32 41.45805 -109.58017 14215 ft 240 kts 88°
2026-05-08 03:32 41.45746 -109.55801 13987 ft 238 kts 88°
2026-05-08 03:32 41.45687 -109.53593 13751 ft 238 kts 88°
2026-05-08 03:32 41.45626 -109.51399 13501 ft 236 kts 88°
2026-05-08 03:33 41.45565 -109.49213 13250 ft 235 kts 88°
2026-05-08 03:33 41.45502 -109.47034 12986 ft 234 kts 88°
2026-05-08 03:33 41.45442 -109.44869 12738 ft 234 kts 88°
2026-05-08 03:33 41.45380 -109.42706 12496 ft 233 kts 88°
2026-05-08 03:34 41.45317 -109.40549 12179 ft 232 kts 88°
2026-05-08 03:34 41.45255 -109.38395 11915 ft 232 kts 89°
2026-05-08 03:34 41.45194 -109.36279 11692 ft 231 kts 89°
2026-05-08 03:34 41.45129 -109.34114 11477 ft 231 kts 89°
2026-05-08 03:35 41.45067 -109.32010 11241 ft 229 kts 89°
2026-05-08 03:35 41.45003 -109.29885 11002 ft 229 kts 89°
2026-05-08 03:35 41.44941 -109.27784 10898 ft 223 kts 89°
2026-05-08 03:35 41.44882 -109.25756 10875 ft 215 kts 89°
2026-05-08 03:36 41.44777 -109.22148 10877 ft 207 kts 88°
2026-05-08 03:36 41.44723 -109.20248 10880 ft 204 kts 88°
2026-05-08 03:36 41.44666 -109.18365 10893 ft 203 kts 88°
2026-05-08 03:37 41.44606 -109.16483 10905 ft 203 kts 88°
2026-05-08 03:37 41.44549 -109.14596 10930 ft 204 kts 88°
2026-05-08 03:37 41.44487 -109.12699 10917 ft 205 kts 89°
2026-05-08 03:37 41.44430 -109.10816 10936 ft 206 kts 88°
2026-05-08 03:38 41.44368 -109.08911 10871 ft 205 kts 89°
2026-05-08 03:38 41.44305 -109.07029 10825 ft 202 kts 87°
2026-05-08 03:38 41.44249 -109.05165 10842 ft 200 kts 87°
2026-05-08 03:38 41.44191 -109.03320 10856 ft 199 kts 88°
2026-05-08 03:39 41.44132 -109.01475 10856 ft 199 kts 88°
2026-05-08 03:39 41.44073 -108.99629 10869 ft 199 kts 88°
2026-05-08 03:39 41.44012 -108.97785 10865 ft 199 kts 89°
2026-05-08 03:39 41.43950 -108.95938 10860 ft 199 kts 88°
2026-05-08 03:40 41.43889 -108.94092 10857 ft 199 kts 89°
2026-05-08 03:40 41.43828 -108.92252 10884 ft 199 kts 89°
2026-05-08 03:40 41.43767 -108.90401 10885 ft 200 kts 88°
2026-05-08 03:40 41.43707 -108.88544 10905 ft 201 kts 88°
2026-05-08 03:41 41.43644 -108.86703 10885 ft 201 kts 88°
2026-05-08 03:41 41.43580 -108.84841 10881 ft 201 kts 88°
2026-05-08 03:41 41.43516 -108.82984 10868 ft 200 kts 89°
2026-05-08 03:41 41.43454 -108.81138 10869 ft 199 kts 89°
2026-05-08 03:42 41.43515 -108.79315 10884 ft 194 kts 69°
2026-05-08 03:42 41.44152 -108.77810 10905 ft 182 kts 37°
2026-05-08 03:42 41.45168 -108.76916 10903 ft 170 kts 11°
2026-05-08 03:42 41.46293 -108.76684 10897 ft 160 kts 349°
2026-05-08 03:43 41.47373 -108.76933 10895 ft 157 kts 339°
2026-05-08 03:43 41.48440 -108.77260 10885 ft 157 kts 340°
2026-05-08 03:43 41.49506 -108.77581 10925 ft 157 kts 339°
2026-05-08 03:43 41.50555 -108.77892 10907 ft 152 kts 339°
2026-05-08 03:44 41.51584 -108.78199 10825 ft 150 kts 340°
2026-05-08 03:44 41.52569 -108.78471 10670 ft 143 kts 341°
2026-05-08 03:44 41.53530 -108.78756 10522 ft 135 kts 335°
2026-05-08 03:44 41.54320 -108.79351 10307 ft 130 kts 311°
2026-05-08 03:45 41.54815 -108.80331 9983 ft 128 kts 290°
2026-05-08 03:45 41.55002 -108.81494 9710 ft 129 kts 283°
2026-05-08 03:45 41.55200 -108.82673 9526 ft 136 kts 285°
2026-05-08 03:45 41.55429 -108.83933 9302 ft 142 kts 286°
2026-05-08 03:46 41.55670 -108.85180 9289 ft 136 kts 286°
2026-05-08 03:46 41.55898 -108.86382 9280 ft 132 kts 286°
2026-05-08 03:46 41.56110 -108.87558 9272 ft 129 kts 286°
2026-05-08 03:46 41.56312 -108.88699 9223 ft 125 kts 285°
2026-05-08 03:47 41.56515 -108.89834 9070 ft 127 kts 285°
2026-05-08 03:47 41.56726 -108.90956 8891 ft 121 kts 285°
2026-05-08 03:47 41.56885 -108.91891 8739 ft 94 kts 282°
2026-05-08 03:47 41.57002 -108.92707 8624 ft 90 kts 279°
2026-05-08 03:48 41.57140 -108.93545 8504 ft 95 kts 284°
2026-05-08 03:48 41.57333 -108.94412 8409 ft 101 kts 284°
2026-05-08 03:48 41.57509 -108.95341 8259 ft 105 kts 283°
2026-05-08 03:48 41.57672 -108.96301 8113 ft 106 kts 283°
2026-05-08 03:49 41.57836 -108.97263 7983 ft 106 kts 283°
2026-05-08 03:49 41.58001 -108.98221 7852 ft 106 kts 283°
2026-05-08 03:49 41.58170 -108.99173 7718 ft 106 kts 283°
2026-05-08 03:49 41.58339 -109.00131 7562 ft 106 kts 284°
2026-05-08 03:50 41.58509 -109.01084 7414 ft 105 kts 281°
2026-05-08 03:50 41.58670 -109.02026 7299 ft 105 kts 279°
2026-05-08 03:50 41.58837 -109.02988 7104 ft 107 kts 280°
2026-05-08 03:50 41.59007 -109.03960 6935 ft 107 kts 280°
2026-05-08 03:51 41.59186 -109.04922 6801 ft 104 kts 280°
2026-05-08 03:51 41.59340 -109.05777 6734 ft 80 kts 283°
2026-05-08 03:51 41.59445 -109.06375 6751 ft 48 kts 283°
2026-05-08 03:51 41.59497 -109.06664 6750 ft 18 kts 291°
2026-05-08 03:52 41.59537 -109.06775 6750 ft 8 kts 337°
2026-05-08 03:52 41.59605 -109.06773 6749 ft 8 kts 14°
2026-05-08 03:52 41.59634 -109.06819 6750 ft 11 kts 283°
2026-05-08 03:52 41.59657 -109.06961 6751 ft 16 kts 284°
2026-05-08 03:53 41.59683 -109.07106 6752 ft 15 kts 283°
2026-05-08 03:53 41.59718 -109.07228 6752 ft 12 kts 327°
2026-05-08 03:53 41.59785 -109.07225 6752 ft 0 kts 15°